Wetterdaten: Mittwoch, 01.05.2013
Datum Zeit Temperatur Luftfeuchte Luftdruck Regen Wind Richtung Richtung Taupunkt Windchill Windben
01.05.2013 00:00 9,5 C 87 % 1020,8 hPa 0,0 l/m 0,3 km/h (0 Bft) O 90 7,4 C 9,6 C 1,6 km/h (1 Bft)
01.05.2013 00:05 9,5 C 87 % 1020,8 hPa 0,0 l/m 0,6 km/h (0 Bft) NO 45 7,4 C 9,6 C 1,8 km/h (1 Bft)
01.05.2013 00:10 9,5 C 87 % 1020,8 hPa 0,0 l/m 1,4 km/h (1 Bft) NO 45 7,4 C 9,6 C 0,0 km/h (0 Bft)
01.05.2013 00:15 9,5 C 87 % 1020,8 hPa 0,0 l/m 1,0 km/h (0 Bft) NO 45 7,4 C 9,6 C 0,0 km/h (0 Bft)
01.05.2013 00:20 9,5 C 87 % 1020,8 hPa 0,0 l/m 1,0 km/h (0 Bft) NO 45 7,4 C 9,6 C 3,7 km/h (1 Bft)
01.05.2013 00:25 9,5 C 87 % 1021,0 hPa 0,0 l/m 1,8 km/h (1 Bft) O 90 7,4 C 9,6 C 2,1 km/h (1 Bft)
01.05.2013 00:30 9,5 C 86 % 1021,0 hPa 0,0 l/m 1,9 km/h (1 Bft) NO 45 7,3 C 9,6 C 0,0 km/h (0 Bft)
01.05.2013 00:35 9,5 C 86 % 1021,0 hPa 0,0 l/m 1,3 km/h (1 Bft) NO 45 7,3 C 9,6 C 1,8 km/h (1 Bft)
01.05.2013 00:40 9,4 C 86 % 1021,0 hPa 0,0 l/m 0,3 km/h (0 Bft) O-SO 112 7,2 C 9,5 C 0,0 km/h (0 Bft)
01.05.2013 00:45 9,4 C 86 % 1021,1 hPa 0,0 l/m 0,3 km/h (0 Bft) O-NO 67 7,2 C 9,5 C 0,0 km/h (0 Bft)
01.05.2013 00:50 9,3 C 87 % 1021,1 hPa 0,0 l/m 0,2 km/h (0 Bft) NO 45 7,2 C 9,4 C 1,8 km/h (1 Bft)
01.05.2013 00:55 9,3 C 87 % 1021,1 hPa 0,0 l/m 0,2 km/h (0 Bft) N-NO 22 7,2 C 9,4 C 0,0 km/h (0 Bft)
01.05.2013 01:00 9,2 C 87 % 1021,1 hPa 0,0 l/m 0,6 km/h (0 Bft) N-NO 22 7,2 C 9,3 C 2,4 km/h (1 Bft)
01.05.2013 01:05 9,3 C 87 % 1020,9 hPa 0,0 l/m 0,8 km/h (0 Bft) N-NW 337 7,2 C 9,3 C 0,0 km/h (0 Bft)
01.05.2013 01:10 9,4 C 87 % 1020,9 hPa 0,0 l/m 1,3 km/h (1 Bft) NO 45 7,3 C 9,4 C 5,3 km/h (1 Bft)
01.05.2013 01:15 9,4 C 87 % 1020,9 hPa 0,0 l/m 0,8 km/h (0 Bft) NO 45 7,3 C 9,5 C 1,8 km/h (1 Bft)
01.05.2013 01:20 9,3 C 87 % 1020,9 hPa 0,0 l/m 0,3 km/h (0 Bft) NO 45 7,2 C 9,5 C 0,0 km/h (0 Bft)
01.05.2013 01:25 9,3 C 87 % 1021,4 hPa 0,0 l/m 0,3 km/h (0 Bft) NO 45 7,2 C 9,4 C 2,4 km/h (1 Bft)
01.05.2013 01:30 9,3 C 87 % 1021,4 hPa 0,0 l/m 1,1 km/h (1 Bft) N-NW 337 7,2 C 9,4 C 3,7 km/h (1 Bft)
01.05.2013 01:35 9,3 C 87 % 1021,4 hPa 0,0 l/m 1,4 km/h (1 Bft) NO 45 7,2 C 9,4 C 0,0 km/h (0 Bft)
01.05.2013 01:40 9,3 C 87 % 1021,4 hPa 0,0 l/m 1,8 km/h (1 Bft) N 360 7,2 C 9,4 C 1,8 km/h (1 Bft)
01.05.2013 01:45 9,2 C 87 % 1020,8 hPa 0,0 l/m 1,3 km/h (1 Bft) NW 315 7,2 C 9,4 C 0,0 km/h (0 Bft)
01.05.2013 01:50 9,2 C 87 % 1020,8 hPa 0,0 l/m 0,8 km/h (0 Bft) NO 45 7,2 C 9,3 C 3,5 km/h (1 Bft)
01.05.2013 01:55 9,2 C 87 % 1020,8 hPa 0,0 l/m 0,6 km/h (0 Bft) NO 45 7,2 C 9,3 C 0,0 km/h (0 Bft)
01.05.2013 02:00 9,2 C 87 % 1020,8 hPa 0,0 l/m 1,3 km/h (1 Bft) N-NO 22 7,2 C 9,3 C 1,8 km/h (1 Bft)
01.05.2013 02:05 9,2 C 87 % 1020,5 hPa 0,0 l/m 1,0 km/h (0 Bft) N 360 7,2 C 9,3 C 3,7 km/h (1 Bft)
01.05.2013 02:10 9,3 C 87 % 1020,5 hPa 0,0 l/m 2,6 km/h (1 Bft) N 360 7,2 C 9,3 C 8,0 km/h (2 Bft)
01.05.2013 02:15 9,2 C 87 % 1020,5 hPa 0,0 l/m 3,5 km/h (1 Bft) NO 45 7,2 C 9,3 C 2,9 km/h (1 Bft)
01.05.2013 02:20 9,2 C 87 % 1020,5 hPa 0,0 l/m 2,3 km/h (1 Bft) NO 45 7,2 C 9,3 C 4,2 km/h (1 Bft)
01.05.2013 02:25 9,2 C 87 % 1020,4 hPa 0,0 l/m 2,1 km/h (1 Bft) O 90 7,2 C 9,3 C 2,9 km/h (1 Bft)
01.05.2013 02:30 9,2 C 88 % 1020,4 hPa 0,0 l/m 3,1 km/h (1 Bft) N-NW 337 7,3 C 9,3 C 4,3 km/h (1 Bft)
01.05.2013 02:35 9,3 C 88 % 1020,4 hPa 0,0 l/m 3,1 km/h (1 Bft) N 360 7,4 C 9,3 C 3,5 km/h (1 Bft)
01.05.2013 02:40 9,2 C 88 % 1020,4 hPa 0,0 l/m 2,9 km/h (1 Bft) N-NW 337 7,3 C 9,3 C 1,9 km/h (1 Bft)
01.05.2013 02:45 9,2 C 88 % 1020,5 hPa 0,0 l/m 2,1 km/h (1 Bft) N 360 7,3 C 9,3 C 2,6 km/h (1 Bft)
01.05.2013 02:50 9,2 C 88 % 1020,5 hPa 0,0 l/m 1,9 km/h (1 Bft) NO 45 7,3 C 9,3 C 4,7 km/h (1 Bft)
01.05.2013 02:55 9,2 C 88 % 1020,5 hPa 0,0 l/m 2,9 km/h (1 Bft) N-NW 337 7,3 C 9,3 C 4,2 km/h (1 Bft)
01.05.2013 03:00 9,1 C 88 % 1020,5 hPa 0,0 l/m 3,4 km/h (1 Bft) N-NO 22 7,2 C 9,3 C 3,7 km/h (1 Bft)
01.05.2013 03:05 9,1 C 88 % 1020,3 hPa 0,0 l/m 3,1 km/h (1 Bft) N-NW 337 7,2 C 9,3 C 2,1 km/h (1 Bft)
01.05.2013 03:10 9,2 C 88 % 1020,3 hPa 0,0 l/m 1,9 km/h (1 Bft) N-NW 337 7,3 C 9,3 C 2,7 km/h (1 Bft)
01.05.2013 03:15 9,1 C 88 % 1020,3 hPa 0,0 l/m 1,8 km/h (1 Bft) N-NW 337 7,2 C 9,3 C 5,1 km/h (1 Bft)
01.05.2013 03:20 9,1 C 88 % 1020,3 hPa 0,0 l/m 2,9 km/h (1 Bft) S 180 7,2 C 9,2 C 5,1 km/h (1 Bft)
01.05.2013 03:25 9,1 C 88 % 1019,9 hPa 0,0 l/m 3,1 km/h (1 Bft) O-NO 67 7,2 C 9,2 C 3,5 km/h (1 Bft)
01.05.2013 03:30 9,1 C 88 % 1019,9 hPa 0,0 l/m 2,3 km/h (1 Bft) W-NW 292 7,2 C 9,2 C 2,6 km/h (1 Bft)
01.05.2013 03:35 9,1 C 88 % 1019,9 hPa 0,0 l/m 2,4 km/h (1 Bft) NW 315 7,2 C 9,2 C 4,2 km/h (1 Bft)
01.05.2013 03:40 9,0 C 88 % 1019,9 hPa 0,0 l/m 2,3 km/h (1 Bft) N 360 7,1 C 9,1 C 5,5 km/h (1 Bft)
01.05.2013 03:45 9,0 C 88 % 1019,8 hPa 0,0 l/m 2,9 km/h (1 Bft) N 360 7,1 C 9,1 C 6,6 km/h (2 Bft)
01.05.2013 03:50 9,0 C 88 % 1019,8 hPa 0,0 l/m 3,4 km/h (1 Bft) N-NW 337 7,1 C 9,1 C 1,6 km/h (1 Bft)
01.05.2013 03:55 9,0 C 88 % 1019,8 hPa 0,0 l/m 3,2 km/h (1 Bft) W 270 7,1 C 9,1 C 2,4 km/h (1 Bft)
01.05.2013 04:00 9,0 C 88 % 1019,8 hPa 0,0 l/m 3,1 km/h (1 Bft) NW 315 7,1 C 9,1 C 3,7 km/h (1 Bft)
01.05.2013 04:05 9,0 C 88 % 1019,7 hPa 0,0 l/m 3,1 km/h (1 Bft) N 360 7,1 C 9,1 C 5,1 km/h (1 Bft)
01.05.2013 04:10 8,9 C 89 % 1019,7 hPa 0,0 l/m 3,2 km/h (1 Bft) N-NO 22 7,2 C 9,1 C 4,0 km/h (1 Bft)
01.05.2013 04:15 8,9 C 89 % 1019,7 hPa 0,0 l/m 3,4 km/h (1 Bft) N 360 7,2 C 9,1 C 5,1 km/h (1 Bft)
01.05.2013 04:20 8,9 C 89 % 1019,7 hPa 0,0 l/m 3,4 km/h (1 Bft) W 270 7,2 C 9,0 C 3,2 km/h (1 Bft)
01.05.2013 04:25 8,9 C 89 % 1019,8 hPa 0,0 l/m 2,7 km/h (1 Bft) N-NW 337 7,2 C 9,0 C 2,3 km/h (1 Bft)
01.05.2013 04:30 8,8 C 89 % 1019,8 hPa 0,0 l/m 2,4 km/h (1 Bft) O-NO 67 7,1 C 8,9 C 2,9 km/h (1 Bft)
01.05.2013 04:35 8,7 C 89 % 1019,8 hPa 0,0 l/m 2,7 km/h (1 Bft) N-NW 337 7,0 C 8,8 C 4,7 km/h (1 Bft)
01.05.2013 04:40 8,6 C 89 % 1019,8 hPa 0,0 l/m 1,8 km/h (1 Bft) N-NW 337 6,9 C 8,7 C 0,0 km/h (0 Bft)
01.05.2013 04:45 8,6 C 89 % 1019,7 hPa 0,0 l/m 1,3 km/h (1 Bft) N 360 6,9 C 8,7 C 0,0 km/h (0 Bft)
01.05.2013 04:50 8,6 C 89 % 1019,7 hPa 0,0 l/m 1,3 km/h (1 Bft) N-NW 337 6,9 C 8,7 C 2,9 km/h (1 Bft)
01.05.2013 04:55 8,6 C 89 % 1019,7 hPa 0,0 l/m 1,3 km/h (1 Bft) O-NO 67 6,9 C 8,7 C 2,1 km/h (1 Bft)
01.05.2013 05:00 8,6 C 89 % 1019,7 hPa 0,0 l/m 1,3 km/h (1 Bft) NW 315 6,9 C 8,6 C 2,1 km/h (1 Bft)
01.05.2013 05:05 8,7 C 89 % 1019,4 hPa 0,0 l/m 1,4 km/h (1 Bft) NW 315 7,0 C 8,7 C 3,7 km/h (1 Bft)
01.05.2013 05:10 8,7 C 89 % 1019,4 hPa 0,0 l/m 2,3 km/h (1 Bft) NO 45 7,0 C 8,7 C 3,7 km/h (1 Bft)
01.05.2013 05:15 8,7 C 89 % 1019,4 hPa 0,0 l/m 2,6 km/h (1 Bft) NO 45 7,0 C 8,7 C 3,2 km/h (1 Bft)
01.05.2013 05:20 8,7 C 89 % 1019,4 hPa 0,0 l/m 1,3 km/h (1 Bft) N-NO 22 7,0 C 8,8 C 0,0 km/h (0 Bft)
01.05.2013 05:25 8,7 C 89 % 1019,4 hPa 0,0 l/m 0,8 km/h (0 Bft) N 360 7,0 C 8,7 C 3,5 km/h (1 Bft)
01.05.2013 05:30 8,5 C 89 % 1019,4 hPa 0,0 l/m 1,6 km/h (1 Bft) NO 45 6,8 C 8,6 C 2,6 km/h (1 Bft)
01.05.2013 05:35 8,4 C 89 % 1019,4 hPa 0,0 l/m 2,3 km/h (1 Bft) N-NW 337 6,7 C 8,5 C 5,0 km/h (1 Bft)
01.05.2013 05:40 8,1 C 89 % 1019,4 hPa 0,0 l/m 1,8 km/h (1 Bft) W-NW 292 6,4 C 8,3 C 0,0 km/h (0 Bft)
01.05.2013 05:45 7,9 C 90 % 1019,5 hPa 0,0 l/m 1,3 km/h (1 Bft) W-NW 292 6,4 C 8,1 C 0,0 km/h (0 Bft)
01.05.2013 05:50 7,9 C 90 % 1019,5 hPa 0,0 l/m 0,6 km/h (0 Bft) W-NW 292 6,4 C 8,0 C 0,0 km/h (0 Bft)
01.05.2013 05:55 7,8 C 90 % 1019,5 hPa 0,0 l/m 0,3 km/h (0 Bft) N 360 6,3 C 7,8 C 0,0 km/h (0 Bft)
01.05.2013 06:00 7,9 C 90 % 1019,5 hPa 0,0 l/m 0,3 km/h (0 Bft) N-NO 22 6,4 C 7,8 C 0,0 km/h (0 Bft)
01.05.2013 06:05 8,0 C 90 % 1019,8 hPa 0,0 l/m 0,3 km/h (0 Bft) O 90 6,5 C 7,9 C 0,0 km/h (0 Bft)
01.05.2013 06:10 8,1 C 90 % 1019,8 hPa 0,0 l/m 0,0 km/h (0 Bft) NO 45 6,6 C 8,0 C 1,6 km/h (1 Bft)
01.05.2013 06:15 8,2 C 90 % 1019,8 hPa 0,0 l/m 0,3 km/h (0 Bft) O-SO 112 6,7 C 8,1 C 0,0 km/h (0 Bft)
01.05.2013 06:20 8,5 C 90 % 1019,8 hPa 0,0 l/m 0,3 km/h (0 Bft) NO 45 7,0 C 8,4 C 0,0 km/h (0 Bft)
01.05.2013 06:25 8,6 C 90 % 1020,4 hPa 0,0 l/m 0,2 km/h (0 Bft) N 360 7,1 C 8,5 C 3,4 km/h (1 Bft)
01.05.2013 06:30 8,7 C 90 % 1020,4 hPa 0,0 l/m 0,6 km/h (0 Bft) W-NW 292 7,2 C 8,7 C 0,0 km/h (0 Bft)
01.05.2013 06:35 8,7 C 90 % 1020,4 hPa 0,0 l/m 0,6 km/h (0 Bft) N-NW 337 7,2 C 8,8 C 1,6 km/h (1 Bft)
01.05.2013 06:40 8,8 C 90 % 1020,4 hPa 0,0 l/m 0,2 km/h (0 Bft) W-NW 292 7,3 C 8,9 C 0,0 km/h (0 Bft)
01.05.2013 06:45 8,8 C 90 % 1021,1 hPa 0,0 l/m 0,3 km/h (0 Bft) W-NW 292 7,3 C 9,0 C 0,0 km/h (0 Bft)
01.05.2013 06:50 8,8 C 90 % 1021,1 hPa 0,0 l/m 1,0 km/h (0 Bft) W-NW 292 7,3 C 9,0 C 0,0 km/h (0 Bft)
01.05.2013 06:55 8,8 C 90 % 1021,1 hPa 0,0 l/m 1,1 km/h (1 Bft) N-NO 22 7,3 C 9,1 C 1,9 km/h (1 Bft)
01.05.2013 07:00 8,8 C 90 % 1021,1 hPa 0,0 l/m 1,6 km/h (1 Bft) W-NW 292 7,3 C 9,1 C 2,1 km/h (1 Bft)
01.05.2013 07:05 8,9 C 90 % 1021,0 hPa 0,0 l/m 1,3 km/h (1 Bft) N-NW 337 7,4 C 9,1 C 0,0 km/h (0 Bft)
01.05.2013 07:10 9,0 C 90 % 1021,0 hPa 0,0 l/m 1,0 km/h (0 Bft) O 90 7,4 C 9,1 C 2,4 km/h (1 Bft)
01.05.2013 07:15 9,0 C 90 % 1021,0 hPa 0,0 l/m 1,8 km/h (1 Bft) O-SO 112 7,4 C 9,1 C 2,7 km/h (1 Bft)
01.05.2013 07:20 9,1 C 90 % 1021,0 hPa 0,0 l/m 1,6 km/h (1 Bft) W-NW 292 7,5 C 9,2 C 2,1 km/h (1 Bft)
01.05.2013 07:25 9,2 C 89 % 1020,9 hPa 0,0 l/m 1,0 km/h (0 Bft) W-SW 247 7,5 C 9,3 C 0,0 km/h (0 Bft)
01.05.2013 07:30 9,1 C 89 % 1020,9 hPa 0,0 l/m 1,1 km/h (1 Bft) S 180 7,4 C 9,3 C 1,8 km/h (1 Bft)
01.05.2013 07:35 9,0 C 89 % 1020,9 hPa 0,0 l/m 1,3 km/h (1 Bft) SO 135 7,3 C 9,3 C 0,0 km/h (0 Bft)
01.05.2013 07:40 9,1 C 89 % 1020,9 hPa 0,0 l/m 1,1 km/h (1 Bft) O-SO 112 7,4 C 9,3 C 4,5 km/h (1 Bft)
01.05.2013 07:45 9,1 C 89 % 1021,4 hPa 0,0 l/m 1,0 km/h (0 Bft) S 180 7,4 C 9,3 C 0,0 km/h (0 Bft)
01.05.2013 07:50 9,1 C 89 % 1021,4 hPa 0,0 l/m 2,7 km/h (1 Bft) SO 135 7,4 C 9,3 C 3,5 km/h (1 Bft)
01.05.2013 07:55 9,1 C 89 % 1021,4 hPa 0,0 l/m 2,4 km/h (1 Bft) O 90 7,4 C 9,3 C 0,0 km/h (0 Bft)
01.05.2013 08:00 9,3 C 89 % 1021,4 hPa 0,0 l/m 0,8 km/h (0 Bft) O-SO 112 7,6 C 9,4 C 0,0 km/h (0 Bft)
01.05.2013 08:05 9,6 C 89 % 1021,4 hPa 0,0 l/m 0,2 km/h (0 Bft) N 360 7,9 C 9,7 C 0,0 km/h (0 Bft)
01.05.2013 08:10 9,8 C 88 % 1021,4 hPa 0,0 l/m 0,2 km/h (0 Bft) NW 315 7,9 C 10,2 C 0,0 km/h (0 Bft)
01.05.2013 08:15 9,9 C 88 % 1021,4 hPa 0,0 l/m 0,2 km/h (0 Bft) NO 45 8,0 C 10,3 C 0,0 km/h (0 Bft)
01.05.2013 08:20 9,9 C 88 % 1021,4 hPa 0,0 l/m 0,5 km/h (0 Bft) N 360 8,0 C 10,6 C 2,3 km/h (1 Bft)
01.05.2013 08:25 9,8 C 88 % 1021,2 hPa 0,0 l/m 0,3 km/h (0 Bft) N-NW 337 7,9 C 10,6 C 0,0 km/h (0 Bft)
01.05.2013 08:30 10,1 C 87 % 1021,2 hPa 0,0 l/m 0,3 km/h (0 Bft) W 270 8,0 C 10,6 C 0,0 km/h (0 Bft)
01.05.2013 08:35 10,5 C 87 % 1021,2 hPa 0,0 l/m 0,0 km/h (0 Bft) NO 45 8,4 C 11,0 C 0,0 km/h (0 Bft)
01.05.2013 08:40 10,5 C 86 % 1021,2 hPa 0,0 l/m 1,0 km/h (0 Bft) W-SW 247 8,3 C 11,5 C 2,6 km/h (1 Bft)
01.05.2013 08:45 10,7 C 86 % 1021,4 hPa 0,0 l/m 1,1 km/h (1 Bft) SW 225 8,5 C 11,6 C 0,0 km/h (0 Bft)
01.05.2013 08:50 11,0 C 85 % 1021,4 hPa 0,0 l/m 1,0 km/h (0 Bft) W 270 8,6 C 11,8 C 3,2 km/h (1 Bft)
01.05.2013 08:55 11,1 C 84 % 1021,4 hPa 0,0 l/m 1,3 km/h (1 Bft) S-SO 157 8,5 C 12,0 C 2,4 km/h (1 Bft)
01.05.2013 09:00 11,3 C 81 % 1021,4 hPa 0,0 l/m 2,6 km/h (1 Bft) W 270 8,2 C 12,3 C 2,4 km/h (1 Bft)
01.05.2013 09:05 11,8 C 80 % 1021,2 hPa 0,0 l/m 2,3 km/h (1 Bft) N 360 8,5 C 12,8 C 0,0 km/h (0 Bft)
01.05.2013 09:10 11,6 C 79 % 1021,2 hPa 0,0 l/m 1,3 km/h (1 Bft) O-SO 112 8,1 C 13,5 C 0,0 km/h (0 Bft)
01.05.2013 09:15 11,9 C 79 % 1021,2 hPa 0,0 l/m 0,8 km/h (0 Bft) W-SW 247 8,4 C 13,7 C 2,3 km/h (1 Bft)
01.05.2013 09:20 12,1 C 78 % 1021,2 hPa 0,0 l/m 0,6 km/h (0 Bft) N-NW 337 8,4 C 13,9 C 2,7 km/h (1 Bft)
01.05.2013 09:25 12,3 C 78 % 1021,4 hPa 0,0 l/m 1,4 km/h (1 Bft) W-NW 292 8,6 C 14,0 C 4,7 km/h (1 Bft)
01.05.2013 09:30 12,5 C 78 % 1021,4 hPa 0,0 l/m 2,7 km/h (1 Bft) NW 315 8,8 C 13,6 C 2,9 km/h (1 Bft)
01.05.2013 09:35 12,4 C 77 % 1021,4 hPa 0,0 l/m 3,2 km/h (1 Bft) S 180 8,5 C 13,6 C 4,0 km/h (1 Bft)
01.05.2013 09:40 13,6 C 76 % 1021,4 hPa 0,0 l/m 2,6 km/h (1 Bft) SW 225 9,4 C 14,1 C 3,7 km/h (1 Bft)
01.05.2013 09:45 13,3 C 74 % 1021,5 hPa 0,0 l/m 3,2 km/h (1 Bft) S 180 8,8 C 14,4 C 5,8 km/h (2 Bft)
01.05.2013 09:50 13,0 C 75 % 1021,5 hPa 0,0 l/m 3,2 km/h (1 Bft) W 270 8,7 C 14,2 C 1,8 km/h (1 Bft)
01.05.2013 09:55 13,8 C 74 % 1021,5 hPa 0,0 l/m 2,4 km/h (1 Bft) W-NW 292 9,2 C 14,6 C 4,0 km/h (1 Bft)
01.05.2013 10:00 13,0 C 74 % 1021,5 hPa 0,0 l/m 2,6 km/h (1 Bft) S-SW 202 8,5 C 14,5 C 4,8 km/h (1 Bft)
01.05.2013 10:05 13,0 C 74 % 1021,6 hPa 0,0 l/m 3,4 km/h (1 Bft) S 180 8,5 C 14,3 C 4,2 km/h (1 Bft)
01.05.2013 10:10 13,1 C 74 % 1021,6 hPa 0,0 l/m 3,5 km/h (1 Bft) W-NW 292 8,6 C 14,1 C 3,2 km/h (1 Bft)
01.05.2013 10:15 13,4 C 74 % 1021,6 hPa 0,0 l/m 3,5 km/h (1 Bft) W-SW 247 8,9 C 14,0 C 3,2 km/h (1 Bft)
01.05.2013 10:20 13,4 C 73 % 1021,6 hPa 0,0 l/m 2,3 km/h (1 Bft) SO 135 8,7 C 14,4 C 0,0 km/h (0 Bft)
01.05.2013 10:25 13,4 C 72 % 1021,6 hPa 0,0 l/m 2,1 km/h (1 Bft) W-SW 247 8,5 C 14,7 C 2,9 km/h (1 Bft)
01.05.2013 10:30 13,6 C 71 % 1021,6 hPa 0,0 l/m 2,9 km/h (1 Bft) N-NW 337 8,4 C 15,0 C 3,9 km/h (1 Bft)
01.05.2013 10:35 14,5 C 69 % 1021,6 hPa 0,0 l/m 3,1 km/h (1 Bft) N 360 8,9 C 15,5 C 7,7 km/h (2 Bft)
01.05.2013 10:40 15,0 C 68 % 1021,6 hPa 0,0 l/m 2,1 km/h (1 Bft) N-NW 337 9,1 C 16,2 C 0,0 km/h (0 Bft)
01.05.2013 10:45 14,8 C 67 % 1021,5 hPa 0,0 l/m 2,1 km/h (1 Bft) W-SW 247 8,7 C 16,9 C 4,3 km/h (1 Bft)
01.05.2013 10:50 14,6 C 68 % 1021,5 hPa 0,0 l/m 2,4 km/h (1 Bft) W-NW 292 8,8 C 17,1 C 4,5 km/h (1 Bft)
01.05.2013 10:55 14,3 C 69 % 1021,5 hPa 0,0 l/m 3,1 km/h (1 Bft) W-NW 292 8,7 C 16,9 C 4,8 km/h (1 Bft)
01.05.2013 11:00 14,6 C 68 % 1021,5 hPa 0,0 l/m 3,4 km/h (1 Bft) W-NW 292 8,8 C 16,7 C 7,1 km/h (2 Bft)
01.05.2013 11:05 14,8 C 68 % 1021,4 hPa 0,0 l/m 3,4 km/h (1 Bft) O 90 9,0 C 16,5 C 1,8 km/h (1 Bft)
01.05.2013 11:10 14,3 C 68 % 1021,4 hPa 0,0 l/m 4,8 km/h (1 Bft) NO 45 8,5 C 16,2 C 10,1 km/h (2 Bft)
01.05.2013 11:15 14,8 C 66 % 1021,4 hPa 0,0 l/m 4,7 km/h (1 Bft) W-NW 292 8,5 C 16,2 C 4,3 km/h (1 Bft)
01.05.2013 11:20 15,4 C 66 % 1021,4 hPa 0,0 l/m 4,5 km/h (1 Bft) NW 315 9,1 C 16,3 C 7,2 km/h (2 Bft)
01.05.2013 11:25 15,1 C 65 % 1021,5 hPa 0,0 l/m 4,2 km/h (1 Bft) N 360 8,6 C 16,3 C 5,3 km/h (1 Bft)
01.05.2013 11:30 16,2 C 63 % 1021,5 hPa 0,0 l/m 4,2 km/h (1 Bft) S 180 9,1 C 16,5 C 2,1 km/h (1 Bft)
01.05.2013 11:35 16,5 C 60 % 1021,5 hPa 0,0 l/m 4,8 km/h (1 Bft) W 270 8,7 C 16,8 C 8,4 km/h (2 Bft)
01.05.2013 11:40 16,8 C 60 % 1021,5 hPa 0,0 l/m 3,9 km/h (1 Bft) W-NW 292 9,0 C 16,7 C 5,8 km/h (2 Bft)
01.05.2013 11:45 16,5 C 62 % 1021,3 hPa 0,0 l/m 4,2 km/h (1 Bft) N-NW 337 9,2 C 17,3 C 5,8 km/h (2 Bft)
01.05.2013 11:50 16,3 C 63 % 1021,3 hPa 0,0 l/m 4,3 km/h (1 Bft) W 270 9,2 C 17,4 C 7,4 km/h (2 Bft)
01.05.2013 11:55 16,5 C 63 % 1021,3 hPa 0,0 l/m 4,8 km/h (1 Bft) N 360 9,4 C 17,3 C 6,4 km/h (2 Bft)
01.05.2013 12:00 16,3 C 63 % 1021,3 hPa 0,0 l/m 4,7 km/h (1 Bft) O-NO 67 9,2 C 17,7 C 6,0 km/h (2 Bft)
01.05.2013 12:05 16,2 C 63 % 1021,2 hPa 0,0 l/m 5,0 km/h (1 Bft) W-NW 292 9,1 C 17,7 C 5,1 km/h (1 Bft)
01.05.2013 12:10 16,8 C 63 % 1021,2 hPa 0,0 l/m 5,3 km/h (1 Bft) W-NW 292 9,7 C 17,9 C 10,8 km/h (2 Bft)
01.05.2013 12:15 16,8 C 62 % 1021,2 hPa 0,0 l/m 5,1 km/h (1 Bft) N-NW 337 9,5 C 17,7 C 7,2 km/h (2 Bft)
01.05.2013 12:20 16,9 C 61 % 1021,2 hPa 0,0 l/m 5,8 km/h (2 Bft) N 360 9,3 C 17,9 C 12,4 km/h (3 Bft)
01.05.2013 12:25 17,5 C 62 % 1021,1 hPa 0,0 l/m 6,0 km/h (2 Bft) NW 315 10,1 C 18,2 C 8,2 km/h (2 Bft)
01.05.2013 12:30 17,4 C 62 % 1021,1 hPa 0,0 l/m 6,1 km/h (2 Bft) N-NW 337 10,0 C 18,4 C 13,5 km/h (3 Bft)
01.05.2013 12:35 17,8 C 62 % 1021,1 hPa 0,0 l/m 6,1 km/h (2 Bft) W 270 10,4 C 18,8 C 3,4 km/h (1 Bft)
01.05.2013 12:40 17,3 C 63 % 1021,1 hPa 0,0 l/m 6,3 km/h (2 Bft) N-NW 337 10,2 C 18,6 C 8,4 km/h (2 Bft)
01.05.2013 12:45 17,5 C 62 % 1020,9 hPa 0,0 l/m 6,3 km/h (2 Bft) N 360 10,1 C 18,7 C 12,4 km/h (3 Bft)
01.05.2013 12:50 17,9 C 62 % 1020,9 hPa 0,0 l/m 6,9 km/h (2 Bft) N-NW 337 10,5 C 18,6 C 5,3 km/h (1 Bft)
01.05.2013 12:55 18,2 C 61 % 1020,9 hPa 0,0 l/m 6,8 km/h (2 Bft) N-NW 337 10,6 C 18,8 C 7,4 km/h (2 Bft)
01.05.2013 13:00 18,1 C 60 % 1020,9 hPa 0,0 l/m 6,4 km/h (2 Bft) N 360 10,2 C 19,3 C 11,6 km/h (2 Bft)
01.05.2013 13:05 18,0 C 62 % 1020,6 hPa 0,0 l/m 6,6 km/h (2 Bft) S-SW 202 10,6 C 19,4 C 5,3 km/h (1 Bft)
01.05.2013 13:10 17,8 C 63 % 1020,6 hPa 0,0 l/m 6,3 km/h (2 Bft) N-NW 337 10,7 C 19,7 C 8,5 km/h (2 Bft)
01.05.2013 13:15 18,1 C 63 % 1020,6 hPa 0,0 l/m 6,3 km/h (2 Bft) O 90 10,9 C 19,6 C 4,7 km/h (1 Bft)
01.05.2013 13:20 18,3 C 62 % 1020,6 hPa 0,0 l/m 6,3 km/h (2 Bft) S 180 10,9 C 19,7 C 3,4 km/h (1 Bft)
01.05.2013 13:25 18,5 C 62 % 1020,4 hPa 0,0 l/m 5,8 km/h (2 Bft) N-NO 22 11,1 C 19,8 C 4,7 km/h (1 Bft)
01.05.2013 13:30 18,4 C 62 % 1020,4 hPa 0,0 l/m 6,1 km/h (2 Bft) W-NW 292 11,0 C 20,0 C 5,8 km/h (2 Bft)
01.05.2013 13:35 18,3 C 61 % 1020,4 hPa 0,0 l/m 7,1 km/h (2 Bft) N 360 10,6 C 19,7 C 9,3 km/h (2 Bft)
01.05.2013 13:40 18,6 C 61 % 1020,4 hPa 0,0 l/m 6,9 km/h (2 Bft) N 360 10,9 C 19,8 C 15,4 km/h (3 Bft)
01.05.2013 13:45 18,7 C 62 % 1020,3 hPa 0,0 l/m 7,1 km/h (2 Bft) N-NW 337 11,3 C 19,9 C 6,4 km/h (2 Bft)
01.05.2013 13:50 18,8 C 63 % 1020,3 hPa 0,0 l/m 7,7 km/h (2 Bft) N 360 11,6 C 19,9 C 15,8 km/h (3 Bft)
01.05.2013 13:55 19,2 C 63 % 1020,3 hPa 0,0 l/m 6,9 km/h (2 Bft) N-NW 337 12,0 C 20,3 C 11,3 km/h (2 Bft)
01.05.2013 14:00 18,8 C 60 % 1020,3 hPa 0,0 l/m 6,4 km/h (2 Bft) NW 315 10,9 C 20,6 C 9,5 km/h (2 Bft)
01.05.2013 14:05 18,9 C 61 % 1020,2 hPa 0,0 l/m 7,1 km/h (2 Bft) N-NW 337 11,2 C 20,2 C 9,8 km/h (2 Bft)
01.05.2013 14:10 19,3 C 60 % 1020,2 hPa 0,0 l/m 6,4 km/h (2 Bft) W-NW 292 11,3 C 20,7 C 6,4 km/h (2 Bft)
01.05.2013 14:15 19,2 C 59 % 1020,2 hPa 0,0 l/m 6,6 km/h (2 Bft) N-NO 22 11,0 C 20,5 C 6,3 km/h (2 Bft)
01.05.2013 14:20 18,9 C 60 % 1020,2 hPa 0,0 l/m 6,6 km/h (2 Bft) W-NW 292 11,0 C 20,5 C 10,6 km/h (2 Bft)
01.05.2013 14:25 18,8 C 63 % 1020,0 hPa 0,0 l/m 6,1 km/h (2 Bft) W 270 11,6 C 20,4 C 12,6 km/h (3 Bft)
01.05.2013 14:30 19,0 C 63 % 1020,0 hPa 0,0 l/m 6,6 km/h (2 Bft) N-NW 337 11,8 C 20,3 C 7,4 km/h (2 Bft)
01.05.2013 14:35 19,3 C 62 % 1020,0 hPa 0,0 l/m 6,6 km/h (2 Bft) W-NW 292 11,8 C 20,3 C 9,5 km/h (2 Bft)
01.05.2013 14:40 19,6 C 62 % 1020,0 hPa 0,0 l/m 7,7 km/h (2 Bft) NW 315 12,1 C 20,1 C 5,8 km/h (2 Bft)
01.05.2013 14:45 19,1 C 62 % 1019,8 hPa 0,0 l/m 7,6 km/h (2 Bft) N 360 11,6 C 20,1 C 8,5 km/h (2 Bft)
01.05.2013 14:50 19,0 C 63 % 1019,8 hPa 0,0 l/m 6,8 km/h (2 Bft) N-NW 337 11,8 C 20,2 C 4,7 km/h (1 Bft)
01.05.2013 14:55 18,9 C 63 % 1019,8 hPa 0,0 l/m 6,4 km/h (2 Bft) N-NW 337 11,7 C 20,4 C 9,2 km/h (2 Bft)
01.05.2013 15:00 19,9 C 61 % 1019,8 hPa 0,0 l/m 6,3 km/h (2 Bft) W-NW 292 12,2 C 20,5 C 7,9 km/h (2 Bft)
01.05.2013 15:05 21,3 C 60 % 1019,4 hPa 0,0 l/m 6,6 km/h (2 Bft) N-NO 22 13,2 C 21,7 C 6,4 km/h (2 Bft)
01.05.2013 15:10 21,5 C 57 % 1019,4 hPa 0,0 l/m 6,9 km/h (2 Bft) W 270 12,6 C 23,5 C 13,2 km/h (3 Bft)
01.05.2013 15:15 21,4 C 55 % 1019,4 hPa 0,0 l/m 7,6 km/h (2 Bft) W-NW 292 12,0 C 23,6 C 13,7 km/h (3 Bft)
01.05.2013 15:20 21,0 C 55 % 1019,4 hPa 0,0 l/m 8,0 km/h (2 Bft) N 360 11,6 C 23,4 C 11,7 km/h (2 Bft)
01.05.2013 15:25 20,7 C 55 % 1019,6 hPa 0,0 l/m 8,0 km/h (2 Bft) N-NW 337 11,3 C 22,8 C 6,4 km/h (2 Bft)
01.05.2013 15:30 20,1 C 57 % 1019,6 hPa 0,0 l/m 7,2 km/h (2 Bft) N 360 11,3 C 22,2 C 5,5 km/h (1 Bft)
01.05.2013 15:35 19,6 C 59 % 1019,6 hPa 0,0 l/m 5,8 km/h (2 Bft) W-NW 292 11,4 C 21,8 C 5,0 km/h (1 Bft)
01.05.2013 15:40 19,2 C 59 % 1019,6 hPa 0,0 l/m 5,6 km/h (1 Bft) NW 315 11,0 C 20,8 C 9,5 km/h (2 Bft)
01.05.2013 15:45 19,2 C 61 % 1019,6 hPa 0,0 l/m 5,8 km/h (2 Bft) N-NW 337 11,5 C 20,4 C 7,7 km/h (2 Bft)
01.05.2013 15:50 19,4 C 60 % 1019,6 hPa 0,0 l/m 6,1 km/h (2 Bft) W-NW 292 11,4 C 20,3 C 8,4 km/h (2 Bft)
01.05.2013 15:55 19,2 C 61 % 1019,6 hPa 0,0 l/m 5,8 km/h (2 Bft) S 180 11,5 C 20,1 C 6,4 km/h (2 Bft)
01.05.2013 16:00 20,0 C 61 % 1019,6 hPa 0,0 l/m 4,2 km/h (1 Bft) N-NW 337 12,2 C 20,4 C 5,1 km/h (1 Bft)
01.05.2013 16:05 20,3 C 58 % 1019,2 hPa 0,0 l/m 3,2 km/h (1 Bft) N-NO 22 11,8 C 21,6 C 5,0 km/h (1 Bft)
01.05.2013 16:10 20,1 C 60 % 1019,2 hPa 0,0 l/m 4,7 km/h (1 Bft) N-NW 337 12,1 C 22,2 C 5,6 km/h (1 Bft)
01.05.2013 16:15 19,7 C 60 % 1019,2 hPa 0,0 l/m 6,1 km/h (2 Bft) NW 315 11,7 C 22,2 C 15,1 km/h (3 Bft)
01.05.2013 16:20 20,1 C 59 % 1019,2 hPa 0,0 l/m 6,1 km/h (2 Bft) W-NW 292 11,8 C 22,1 C 5,0 km/h (1 Bft)
01.05.2013 16:25 20,3 C 60 % 1019,1 hPa 0,0 l/m 6,4 km/h (2 Bft) W 270 12,3 C 22,4 C 5,8 km/h (2 Bft)
01.05.2013 16:30 20,7 C 58 % 1019,1 hPa 0,0 l/m 6,0 km/h (2 Bft) N-NW 337 12,1 C 22,9 C 10,5 km/h (2 Bft)
01.05.2013 16:35 20,4 C 58 % 1019,1 hPa 0,0 l/m 6,3 km/h (2 Bft) N-NW 337 11,9 C 23,2 C 10,0 km/h (2 Bft)
01.05.2013 16:40 20,7 C 59 % 1019,1 hPa 0,0 l/m 6,1 km/h (2 Bft) N-NW 337 12,4 C 23,9 C 5,8 km/h (2 Bft)
01.05.2013 16:45 20,7 C 59 % 1019,0 hPa 0,0 l/m 6,6 km/h (2 Bft) N 360 12,4 C 24,3 C 16,9 km/h (3 Bft)
01.05.2013 16:50 20,4 C 60 % 1019,0 hPa 0,0 l/m 7,6 km/h (2 Bft) NW 315 12,4 C 23,7 C 9,3 km/h (2 Bft)
01.05.2013 16:55 19,9 C 60 % 1019,0 hPa 0,0 l/m 7,9 km/h (2 Bft) N-NO 22 11,9 C 23,4 C 9,7 km/h (2 Bft)
01.05.2013 17:00 19,8 C 62 % 1019,0 hPa 0,0 l/m 7,2 km/h (2 Bft) N 360 12,3 C 22,8 C 8,9 km/h (2 Bft)
01.05.2013 17:05 19,5 C 64 % 1018,9 hPa 0,0 l/m 6,3 km/h (2 Bft) N-NO 22 12,5 C 22,6 C 4,3 km/h (1 Bft)
01.05.2013 17:10 19,2 C 65 % 1018,9 hPa 0,0 l/m 5,5 km/h (1 Bft) N-NW 337 12,5 C 21,7 C 6,6 km/h (2 Bft)
01.05.2013 17:15 19,9 C 64 % 1018,9 hPa 0,0 l/m 5,0 km/h (1 Bft) N-NW 337 12,9 C 22,0 C 9,8 km/h (2 Bft)
01.05.2013 17:20 19,9 C 63 % 1018,9 hPa 0,0 l/m 5,1 km/h (1 Bft) W-SW 247 12,6 C 23,1 C 3,9 km/h (1 Bft)
01.05.2013 17:25 19,7 C 63 % 1018,7 hPa 0,0 l/m 5,8 km/h (2 Bft) N-NW 337 12,5 C 23,1 C 10,3 km/h (2 Bft)
01.05.2013 17:30 19,6 C 64 % 1018,7 hPa 0,0 l/m 6,1 km/h (2 Bft) NW 315 12,6 C 23,0 C 5,8 km/h (2 Bft)
01.05.2013 17:35 19,5 C 64 % 1018,7 hPa 0,0 l/m 5,8 km/h (2 Bft) W-NW 292 12,5 C 22,7 C 4,2 km/h (1 Bft)
01.05.2013 17:40 19,6 C 64 % 1018,7 hPa 0,0 l/m 5,1 km/h (1 Bft) N 360 12,6 C 22,7 C 5,6 km/h (1 Bft)
01.05.2013 17:45 19,7 C 64 % 1018,4 hPa 0,0 l/m 5,5 km/h (1 Bft) W-NW 292 12,7 C 22,8 C 5,3 km/h (1 Bft)
01.05.2013 17:50 19,7 C 64 % 1018,4 hPa 0,0 l/m 4,8 km/h (1 Bft) N 360 12,7 C 23,3 C 2,7 km/h (1 Bft)
01.05.2013 17:55 19,7 C 64 % 1018,4 hPa 0,0 l/m 4,2 km/h (1 Bft) NW 315 12,7 C 23,5 C 6,1 km/h (2 Bft)
01.05.2013 18:00 19,2 C 65 % 1018,4 hPa 0,0 l/m 5,1 km/h (1 Bft) W-NW 292 12,5 C 22,6 C 7,6 km/h (2 Bft)
01.05.2013 18:05 19,1 C 66 % 1018,6 hPa 0,0 l/m 5,8 km/h (2 Bft) W-NW 292 12,6 C 21,8 C 5,3 km/h (1 Bft)
01.05.2013 18:10 18,9 C 67 % 1018,6 hPa 0,0 l/m 5,5 km/h (1 Bft) N 360 12,6 C 20,9 C 6,9 km/h (2 Bft)
01.05.2013 18:15 18,7 C 68 % 1018,6 hPa 0,0 l/m 5,0 km/h (1 Bft) N-NW 337 12,7 C 20,5 C 5,5 km/h (1 Bft)
01.05.2013 18:20 18,6 C 69 % 1018,6 hPa 0,0 l/m 3,5 km/h (1 Bft) NO 45 12,8 C 20,1 C 2,7 km/h (1 Bft)
01.05.2013 18:25 18,5 C 69 % 1018,6 hPa 0,0 l/m 2,9 km/h (1 Bft) NO 45 12,7 C 20,0 C 2,3 km/h (1 Bft)
01.05.2013 18:30 18,4 C 70 % 1018,6 hPa 0,0 l/m 1,9 km/h (1 Bft) O 90 12,8 C 19,8 C 1,8 km/h (1 Bft)
01.05.2013 18:35 18,2 C 71 % 1018,6 hPa 0,0 l/m 1,8 km/h (1 Bft) NO 45 12,9 C 19,7 C 1,8 km/h (1 Bft)
01.05.2013 18:40 17,9 C 72 % 1018,6 hPa 0,0 l/m 2,1 km/h (1 Bft) N-NO 22 12,8 C 19,3 C 4,0 km/h (1 Bft)
01.05.2013 18:45 17,9 C 73 % 1018,5 hPa 0,0 l/m 1,8 km/h (1 Bft) N-NO 22 13,0 C 19,2 C 0,0 km/h (0 Bft)
01.05.2013 18:50 17,9 C 73 % 1018,5 hPa 0,0 l/m 1,0 km/h (0 Bft) O 90 13,0 C 19,0 C 0,0 km/h (0 Bft)
01.05.2013 18:55 18,0 C 73 % 1018,5 hPa 0,0 l/m 0,5 km/h (0 Bft) W-NW 292 13,1 C 19,0 C 0,0 km/h (0 Bft)
01.05.2013 19:00 18,0 C 73 % 1018,5 hPa 0,0 l/m 1,6 km/h (1 Bft) W-NW 292 13,1 C 18,9 C 3,2 km/h (1 Bft)
01.05.2013 19:05 18,0 C 74 % 1018,7 hPa 0,0 l/m 1,8 km/h (1 Bft) NW 315 13,3 C 18,8 C 2,3 km/h (1 Bft)
01.05.2013 19:10 17,9 C 74 % 1018,7 hPa 0,0 l/m 1,1 km/h (1 Bft) W-NW 292 13,2 C 18,7 C 2,3 km/h (1 Bft)
01.05.2013 19:15 17,8 C 73 % 1018,7 hPa 0,0 l/m 0,8 km/h (0 Bft) SW 225 12,9 C 18,6 C 0,0 km/h (0 Bft)
01.05.2013 19:20 17,7 C 74 % 1018,7 hPa 0,0 l/m 0,6 km/h (0 Bft) O-NO 67 13,0 C 18,6 C 1,8 km/h (1 Bft)
01.05.2013 19:25 17,6 C 75 % 1018,8 hPa 0,0 l/m 0,3 km/h (0 Bft) N-NO 22 13,1 C 18,5 C 0,0 km/h (0 Bft)
01.05.2013 19:30 17,3 C 76 % 1018,8 hPa 0,0 l/m 0,5 km/h (0 Bft) S 180 13,0 C 18,3 C 2,3 km/h (1 Bft)
01.05.2013 19:35 17,2 C 76 % 1018,8 hPa 0,0 l/m 1,0 km/h (0 Bft) S 180 12,9 C 18,1 C 2,7 km/h (1 Bft)
01.05.2013 19:40 17,1 C 77 % 1018,8 hPa 0,0 l/m 2,1 km/h (1 Bft) O 90 13,0 C 17,8 C 3,9 km/h (1 Bft)
01.05.2013 19:45 17,0 C 77 % 1018,7 hPa 0,0 l/m 1,9 km/h (1 Bft) O-SO 112 12,9 C 17,6 C 0,0 km/h (0 Bft)
01.05.2013 19:50 16,7 C 78 % 1018,7 hPa 0,0 l/m 1,9 km/h (1 Bft) S-SO 157 12,8 C 17,4 C 3,7 km/h (1 Bft)
01.05.2013 19:55 16,5 C 78 % 1018,7 hPa 0,0 l/m 1,9 km/h (1 Bft) SO 135 12,6 C 17,2 C 2,9 km/h (1 Bft)
01.05.2013 20:00 16,5 C 78 % 1018,7 hPa 0,0 l/m 2,9 km/h (1 Bft) O 90 12,6 C 17,0 C 3,1 km/h (1 Bft)
01.05.2013 20:05 16,4 C 78 % 1018,9 hPa 0,0 l/m 2,4 km/h (1 Bft) O-SO 112 12,6 C 16,9 C 2,7 km/h (1 Bft)
01.05.2013 20:10 16,0 C 79 % 1018,9 hPa 0,0 l/m 2,4 km/h (1 Bft) O 90 12,4 C 16,6 C 3,7 km/h (1 Bft)
01.05.2013 20:15 15,8 C 79 % 1018,9 hPa 0,0 l/m 2,4 km/h (1 Bft) O 90 12,2 C 16,3 C 0,0 km/h (0 Bft)
01.05.2013 20:20 15,6 C 80 % 1018,9 hPa 0,0 l/m 2,3 km/h (1 Bft) O 90 12,2 C 15,9 C 2,4 km/h (1 Bft)
01.05.2013 20:25 15,4 C 81 % 1018,7 hPa 0,0 l/m 2,4 km/h (1 Bft) O 90 12,2 C 15,5 C 3,1 km/h (1 Bft)
01.05.2013 20:30 15,1 C 81 % 1018,7 hPa 0,0 l/m 2,6 km/h (1 Bft) NO 45 11,9 C 15,2 C 2,6 km/h (1 Bft)
01.05.2013 20:35 15,2 C 82 % 1018,7 hPa 0,0 l/m 2,9 km/h (1 Bft) O 90 12,1 C 15,0 C 3,9 km/h (1 Bft)
01.05.2013 20:40 15,2 C 82 % 1018,7 hPa 0,0 l/m 3,5 km/h (1 Bft) O 90 12,1 C 14,8 C 4,3 km/h (1 Bft)
01.05.2013 20:45 15,0 C 83 % 1018,4 hPa 0,0 l/m 4,2 km/h (1 Bft) O-SO 112 12,1 C 14,8 C 5,3 km/h (1 Bft)
01.05.2013 20:50 14,7 C 84 % 1018,4 hPa 0,0 l/m 4,7 km/h (1 Bft) O 90 12,0 C 14,6 C 4,3 km/h (1 Bft)
01.05.2013 20:55 14,7 C 84 % 1018,4 hPa 0,0 l/m 4,2 km/h (1 Bft) O-SO 112 12,0 C 14,5 C 2,6 km/h (1 Bft)
01.05.2013 21:00 14,3 C 83 % 1018,4 hPa 0,0 l/m 2,1 km/h (1 Bft) SO 135 11,5 C 14,3 C 2,7 km/h (1 Bft)
01.05.2013 21:05 14,2 C 84 % 1018,6 hPa 0,0 l/m 1,8 km/h (1 Bft) S-SW 202 11,5 C 14,2 C 2,6 km/h (1 Bft)
01.05.2013 21:10 14,0 C 84 % 1018,6 hPa 0,0 l/m 2,9 km/h (1 Bft) S-SO 157 11,3 C 14,3 C 1,6 km/h (1 Bft)
01.05.2013 21:15 13,9 C 84 % 1018,6 hPa 0,0 l/m 2,9 km/h (1 Bft) S 180 11,2 C 14,3 C 6,1 km/h (2 Bft)
01.05.2013 21:20 13,8 C 85 % 1018,6 hPa 0,0 l/m 3,1 km/h (1 Bft) S 180 11,3 C 14,3 C 4,3 km/h (1 Bft)
01.05.2013 21:25 13,8 C 85 % 1018,5 hPa 0,0 l/m 2,4 km/h (1 Bft) O-SO 112 11,3 C 14,2 C 1,6 km/h (1 Bft)
01.05.2013 21:30 13,7 C 85 % 1018,5 hPa 0,0 l/m 0,6 km/h (0 Bft) O 90 11,2 C 13,9 C 0,0 km/h (0 Bft)
01.05.2013 21:35 13,9 C 86 % 1018,5 hPa 0,0 l/m 1,1 km/h (1 Bft) O 90 11,6 C 13,7 C 2,9 km/h (1 Bft)
01.05.2013 21:40 13,8 C 86 % 1018,5 hPa 0,0 l/m 2,1 km/h (1 Bft) O 90 11,5 C 13,7 C 2,7 km/h (1 Bft)
01.05.2013 21:45 13,8 C 86 % 1018,9 hPa 0,0 l/m 2,1 km/h (1 Bft) SO 135 11,5 C 13,7 C 1,8 km/h (1 Bft)
01.05.2013 21:50 13,6 C 86 % 1018,9 hPa 0,0 l/m 1,1 km/h (1 Bft) O-SO 112 11,3 C 13,6 C 2,7 km/h (1 Bft)
01.05.2013 21:55 13,7 C 86 % 1018,9 hPa 0,0 l/m 1,1 km/h (1 Bft) O 90 11,4 C 13,5 C 2,6 km/h (1 Bft)
01.05.2013 22:00 13,5 C 86 % 1018,9 hPa 0,0 l/m 1,6 km/h (1 Bft) S 180 11,2 C 13,5 C 2,4 km/h (1 Bft)
01.05.2013 22:05 13,0 C 86 % 1018,9 hPa 0,0 l/m 1,1 km/h (1 Bft) W-SW 247 10,7 C 13,5 C 0,0 km/h (0 Bft)
01.05.2013 22:10 12,9 C 87 % 1018,9 hPa 0,0 l/m 1,3 km/h (1 Bft) O-NO 67 10,8 C 13,1 C 2,1 km/h (1 Bft)
01.05.2013 22:15 13,0 C 87 % 1018,9 hPa 0,0 l/m 1,1 km/h (1 Bft) SO 135 10,9 C 13,0 C 2,7 km/h (1 Bft)
01.05.2013 22:20 12,9 C 88 % 1018,9 hPa 0,0 l/m 1,0 km/h (0 Bft) O-SO 112 11,0 C 13,0 C 0,0 km/h (0 Bft)
01.05.2013 22:25 13,1 C 87 % 1019,0 hPa 0,0 l/m 1,4 km/h (1 Bft) O-SO 112 11,0 C 13,0 C 2,1 km/h (1 Bft)
01.05.2013 22:30 13,0 C 88 % 1019,0 hPa 0,0 l/m 1,3 km/h (1 Bft) O-SO 112 11,1 C 13,0 C 2,1 km/h (1 Bft)
01.05.2013 22:35 12,9 C 88 % 1019,0 hPa 0,0 l/m 1,9 km/h (1 Bft) W-SW 247 11,0 C 13,1 C 0,0 km/h (0 Bft)
01.05.2013 22:40 12,4 C 88 % 1019,0 hPa 0,0 l/m 1,1 km/h (1 Bft) S 180 10,5 C 12,9 C 0,0 km/h (0 Bft)
01.05.2013 22:45 12,2 C 88 % 1019,1 hPa 0,0 l/m 0,2 km/h (0 Bft) NO 45 10,3 C 12,8 C 0,0 km/h (0 Bft)
01.05.2013 22:50 12,5 C 88 % 1019,1 hPa 0,0 l/m 0,2 km/h (0 Bft) O-NO 67 10,6 C 12,7 C 2,7 km/h (1 Bft)
01.05.2013 22:55 12,9 C 89 % 1019,1 hPa 0,0 l/m 1,0 km/h (0 Bft) O-SO 112 11,1 C 12,7 C 2,7 km/h (1 Bft)
01.05.2013 23:00 13,3 C 88 % 1019,1 hPa 0,0 l/m 2,3 km/h (1 Bft) SO 135 11,4 C 12,9 C 2,4 km/h (1 Bft)
01.05.2013 23:05 13,3 C 88 % 1019,2 hPa 0,0 l/m 2,6 km/h (1 Bft) O-SO 112 11,4 C 13,2 C 2,6 km/h (1 Bft)
01.05.2013 23:10 13,3 C 88 % 1019,2 hPa 0,0 l/m 1,8 km/h (1 Bft) O-SO 112 11,4 C 13,3 C 0,0 km/h (0 Bft)
01.05.2013 23:15 12,9 C 88 % 1019,2 hPa 0,0 l/m 1,0 km/h (0 Bft) O-SO 112 11,0 C 13,3 C 1,9 km/h (1 Bft)
01.05.2013 23:20 12,5 C 88 % 1019,2 hPa 0,0 l/m 0,3 km/h (0 Bft) N-NW 337 10,6 C 13,1 C 0,0 km/h (0 Bft)
01.05.2013 23:25 12,4 C 88 % 1018,9 hPa 0,0 l/m 0,2 km/h (0 Bft) N-NW 337 10,5 C 12,9 C 0,0 km/h (0 Bft)
01.05.2013 23:30 12,5 C 88 % 1018,9 hPa 0,0 l/m 0,3 km/h (0 Bft) NO 45 10,6 C 12,7 C 0,0 km/h (0 Bft)
01.05.2013 23:35 12,5 C 88 % 1018,9 hPa 0,0 l/m 0,3 km/h (0 Bft) NO 45 10,6 C 12,6 C 0,0 km/h (0 Bft)
01.05.2013 23:40 12,7 C 89 % 1018,9 hPa 0,0 l/m 0,6 km/h (0 Bft) O 90 10,9 C 12,5 C 3,2 km/h (1 Bft)
01.05.2013 23:45 12,8 C 89 % 1019,2 hPa 0,0 l/m 1,9 km/h (1 Bft) O-NO 67 11,0 C 12,5 C 4,0 km/h (1 Bft)
01.05.2013 23:50 12,8 C 89 % 1019,2 hPa 0,0 l/m 3,7 km/h (1 Bft) O 90 11,0 C 12,5 C 4,3 km/h (1 Bft)
01.05.2013 23:55 12,7 C 89 % 1019,2 hPa 0,0 l/m 3,5 km/h (1 Bft) O 90 10,9 C 12,5 C 3,1 km/h (1 Bft)
_ Min-Zeit 05:55 15:25 21:00 - 08:35 - - 05:55 06:00 23:35
Minimum _ 7,8 C 55 % 1018,4 hPa - 0,0 km/h (0 Bft) - - 6,3 C 7,8 C 0,0 km/h (0 Bft)
_ Max-Zeit 15:10 07:20 10:40 23:55 15:25 - - 19:05 16:45 16:45
Maximum _ 21,5 C 90 % 1021,6 hPa 0,0 l/m 8,0 km/h
N-NW (2 Bft)
- - 13,3 C 24,3 C 16,9 km/h
N (3 Bft)
Durchschnitt _ 13,7 C 78 % 1020,0 hPa #0,0 l/m 3,0 km/h (1 Bft) N-NW - 9,6 C 14,5 C 3,9 km/h (1 Bft)